This is the latest recevied weather packets stored in our database for station/object N4QB-13. If no packets are shown the sender has not sent any weather packets the latest 10 day(s).
| Time | Temp. | Humidity | Pressure | Rain* | Wind** | Luminosity | Snow |
|---|---|---|---|---|---|---|---|
| 1777337053 | 23.33° C | 69% | 1016.4 hPa | 0 mm | - | 0 W/m² | - |
| 1777336750 | 23.89° C | 68% | 1016.5 hPa | 0 mm | - | 0 W/m² | - |
| 1777336449 | 23.89° C | 67% | 1016.4 hPa | 0 mm | - | 0 W/m² | - |
| 1777336146 | 24.44° C | 66% | 1016.5 hPa | 0 mm | - | 0 W/m² | - |
| 1777335843 | 24.44° C | 66% | 1016.6 hPa | 0 mm | - | 0 W/m² | - |
| 1777335540 | 24.44° C | 65% | 1016.2 hPa | 0 mm | - | 1 W/m² | - |
| 1777335237 | 25° C | 65% | 1016.4 hPa | 0 mm | - | 1 W/m² | - |
| 1777334934 | 25° C | 64% | 1016.4 hPa | 0 mm | - | 2 W/m² | - |
| 1777334632 | 25° C | 64% | 1016.1 hPa | 0 mm | - | 3 W/m² | - |
| 1777334330 | 25° C | 64% | 1016.2 hPa | 0 mm | - | 5 W/m² | - |
| 1777334024 | 25.56° C | 63% | 1016.1 hPa | 0 mm | - | 7 W/m² | - |
| 1777333720 | 25.56° C | 63% | 1015.9 hPa | 0 mm | - | 9 W/m² | - |
| 1777333417 | 25.56° C | 62% | 1015.9 hPa | 0 mm | - | 10 W/m² | - |
| 1777333115 | 25.56° C | 62% | 1015.9 hPa | 0 mm | - | 12 W/m² | - |
| 1777332813 | 26.11° C | 61% | 1015.9 hPa | 0 mm | - | 15 W/m² | - |
| 1777332509 | 26.11° C | 61% | 1016 hPa | 0 mm | - | 18 W/m² | - |
| 1777332206 | 26.11° C | 61% | 1015.9 hPa | 0 mm | - | 19 W/m² | - |
| 1777331903 | 26.11° C | 61% | 1015.8 hPa | 0 mm | - | 20 W/m² | - |
| 1777331601 | 26.11° C | 60% | 1015.6 hPa | 0 mm | - | 27 W/m² | - |
| 1777331298 | 26.11° C | 60% | 1015.7 hPa | 0 mm | - | 24 W/m² | - |
| 1777330995 | 26.11° C | 60% | 1015.6 hPa | 0 mm | - | 25 W/m² | - |
| 1777330692 | 26.67° C | 60% | 1015.7 hPa | 0 mm | - | 29 W/m² | - |
| 1777330389 | 26.67° C | 59% | 1015.6 hPa | 0 mm | - | 29 W/m² | - |
| 1777330086 | 26.67° C | 59% | 1015.7 hPa | 0 mm | - | 42 W/m² | - |
| 1777329785 | 26.67° C | 59% | 1015.3 hPa | 0 mm | - | 32 W/m² | - |
* Rain latest hour (hover to see other rain measurements)
** Current wind speed in m/s (hover to see current wind gust speed)